Location: St. Louis
(38.6270°N, 90.1994°W)
Time: 14:10:08
(UTC-06:00)

deb Explorer IX - Pass Details

Date: 09 December 2021
Orbit: 544 x 1082 km, 38.8° (Epoch: 16 January)

Event Time Altitude Azimuth Distance (km) Brightness Sun altitude
Rises 06:54:52 0° 223° (SW) 3,586 ? -2.9°
Reaches altitude 10° 06:57:52 10° 215° (SW) 2,553 ? -2.4°
Maximum altitude 07:03:12 33° 153° (SSE) 1,328 ? -1.5°
Drops below altitude 10° 07:07:51 10° 90° (E) 2,220 ? -0.7°
Sets 07:10:17 0° 81° (E) 3,056 ? -0.3°
